Point Salines, Grenada

10:44 PM AST on September 29, 2016 (GMT -0400)
Point Salines International

Weather History for TGPY - October, 2012

Change the Weather History Date:

Tuesday, October 2, 2012

  Actual Average Record
Temperature  
Mean Temperature 82 °F -  
Max Temperature 88 °F 86 °F 89 °F (2005)
Min Temperature 75 °F 77 °F 73 °F (2014)
Cooling Degree Days 16    
Growing Degree Days 32 (Base 50)    
Moisture  
Dew Point 77 °F    
Average Humidity 82    
Maximum Humidity 100    
Minimum Humidity 63    
Precipitation  
Precipitation 0.02 in - - ()
Sea Level Pressure  
Sea Level Pressure 29.92 in    
Wind  
Wind Speed 4 mph ()    
Max Wind Speed 14 mph    
Max Gust Speed -    
Visibility 7.5 miles    
Events Rain    
Averages and records for this station are not official NWS values.
T = Trace of Precipitation, MM = Missing Value Source: Averaged Metar Reports

Daily Weather History Graph

Daily Weather History Graph

Search for Another Location

Airport or City:

Trip Planner

Search our weather history database for the weather conditions in past years. The results will help you decide how hot, cold, wet, or windy it might be!

Date:

Astronomy

Oct. 02, 2012 Rise Set
Actual Time 5:56 AM AST 5:56 PM AST
Civil Twilight 5:35 AM AST 6:17 PM AST
Nautical Twilight 5:10 AM AST 6:41 PM AST
Astronomical Twilight 4:45 AM AST 7:06 PM AST
Moon 7:41 PM AST (10/2) 7:46 AM AST (10/2)
Length of Visible Light 12h 42m
Length of Day
12h 00m
Waning Gibbous, 94% of the Moon is Illuminated
Oct 2
Waning Gibbous
Oct 8
Last Quarter
Oct 15
New
Oct 21
First Quarter
Oct 29
Full

Hourly Weather History & Observations

Time (AST) Temp. Heat Index Dew Point Humidity Pressure Visibility Wind Dir Wind Speed Gust Speed Precip Events Conditions
12:00 AM 78.8 °F - 77.0 °F 94% 29.92 in 6.2 mi Calm Calm - N/A   Mostly Cloudy
1:00 AM 78.8 °F - 77.0 °F 94% 29.92 in 6.2 mi Calm Calm - N/A   Mostly Cloudy
2:00 AM 78 °F - 77 °F 95% 29.89 in 11 mi Calm Calm - - Rain Light Rain Showers
2:30 AM 77.0 °F - 77.0 °F 100% 29.89 in 6.2 mi Calm Calm - N/A   Mostly Cloudy
3:30 AM 77.0 °F - 77.0 °F 100% 29.86 in 6.2 mi Calm Calm - N/A   Mostly Cloudy
4:00 AM 78.8 °F - 77.0 °F 94% 29.89 in 6.2 mi ENE 6.9 mph - N/A   Mostly Cloudy
5:00 AM 79 °F - 76 °F 89% 29.89 in 11 mi East 6.9 mph - -   Widespread Dust
5:00 AM 78.8 °F - 77.0 °F 94% 29.89 in 6.2 mi East 6.9 mph - N/A   Scattered Clouds
6:00 AM 78.8 °F - 75.2 °F 89% 29.89 in 6.2 mi East 5.8 mph - N/A   Scattered Clouds
7:00 AM 78.8 °F - 75.2 °F 89% 29.92 in 6.2 mi Calm Calm - N/A   Partly Cloudy
8:00 AM 81 °F - 77 °F 84% 29.96 in 11 mi Calm Calm - - Rain Light Rain Showers
8:00 AM 80.6 °F 87.1 °F 77.0 °F 89% 29.95 in 6.2 mi Calm Calm - N/A   Scattered Clouds
9:00 AM 86.0 °F 96.9 °F 77.0 °F 74% 29.98 in 6.2 mi East 8.1 mph - N/A   Scattered Clouds
10:00 AM 87.8 °F 99.7 °F 77.0 °F 70% 29.98 in 6.2 mi ESE 11.5 mph - N/A   Scattered Clouds
11:00 AM 87 °F - 77 °F 65% 29.99 in 16 mi ESE 13.8 mph - -   Partly Cloudy
11:00 AM 87.8 °F 99.7 °F 77.0 °F 70% 29.98 in 6.2 mi ESE 13.8 mph - N/A   Scattered Clouds
12:00 PM 87.8 °F 99.7 °F 77.0 °F 70% 29.95 in 6.2 mi ESE 11.5 mph - N/A   Scattered Clouds
1:00 PM 87.8 °F 99.7 °F 77.0 °F 70% 29.92 in 6.2 mi SE 12.7 mph - N/A   Scattered Clouds
2:00 PM 87 °F - 76 °F 63% 29.91 in 17 mi ESE 11.5 mph - -   Partly Cloudy
2:00 PM 87.8 °F 99.7 °F 77.0 °F 70% 29.89 in 6.2 mi ESE 11.5 mph - N/A   Scattered Clouds
3:00 PM 86.0 °F 96.9 °F 77.0 °F 74% 29.89 in 6.2 mi ESE 11.5 mph - N/A Rain Light Rain Showers
4:00 PM 87.8 °F 99.7 °F 77.0 °F 70% 29.89 in 6.2 mi East 11.5 mph - N/A   Mostly Cloudy
5:00 PM 86 °F - 77 °F 67% 29.90 in 10 mi East 9.2 mph - -   Scattered Clouds
5:00 PM 86.0 °F 96.9 °F 77.0 °F 74% 29.89 in 6.2 mi East 9.2 mph - N/A   Mostly Cloudy
6:00 PM 82.4 °F 90.9 °F 77.0 °F 84% 29.89 in 6.2 mi East 5.8 mph - N/A   Mostly Cloudy
7:00 PM 82.4 °F 89.5 °F 75.2 °F 79% 29.89 in 6.2 mi East 3.5 mph - N/A   Mostly Cloudy
8:00 PM 82 °F - 76 °F 77% 29.92 in 10 mi East 4.6 mph - -   Widespread Dust
8:00 PM 82.4 °F 89.5 °F 75.2 °F 79% 29.92 in 6.2 mi East 4.6 mph - N/A   Mostly Cloudy
9:00 PM 80.6 °F 86.2 °F 75.2 °F 84% 29.92 in 6.2 mi East 3.5 mph - N/A   Partly Cloudy
10:00 PM 80.6 °F 86.2 °F 75.2 °F 84% 29.95 in 6.2 mi Calm Calm - N/A   Partly Cloudy
11:00 PM 80 °F - 77 °F 89% 29.95 in 6 mi 2.3 mph - - Rain Light Rain Showers
11:00 PM 80.6 °F 87.1 °F 77.0 °F 89% 29.95 in 6.2 mi Variable 2.3 mph - N/A Rain Light Rain Showers